Flag for Germany Weather past 2 weeks in Kulmbach, Bavaria, Germany

Now
73 °F

Passing clouds.


Feels Like: 77 °F
Forecast: 62 / 83 °F
Wind: 3 mph from South

Location: Hof Airport

Current Time: Aug 4, 2015 at 9:37:03 AM

Latest Report: Aug 4, 2015 at 8:50 AM


Visibility: N/A

Pressure: 30.01 "Hg

Humidity: 53%

Dew point: 55 °F

Location of KulmbachLocation

Historic Weather in Kulmbach — Graph

°F

Kulmbach temperature yesterday

Maximum temperature yesterday: 82 °F (at 1:50 PM)
Minimum temperature yesterday: 59 °F (at 6:50 AM)
Average temperature yesterday: 75 °F

Past Weeks' High & Low Weather Summary

 TemperatureHumidityPressure
High90 °F (Jul 22, 1:50 PM)94% (Jul 21, 1:20 AM)30.15 "Hg (Jul 21, 1:20 AM)
Low48 °F (Jul 30, 6:50 AM)26% (Jul 26, 4:20 PM)29.68 "Hg (Jul 27, 7:20 AM)
Average67 °F54%29.96 "Hg
* Reported Jul 20 8:20 AM — Aug 4 8:20 AM, Kulmbach, Weather by CustomWeather, © 2015

Note: Actual official high and low records may vary slightly from our data, if they occured in-between our weather recording intervals... More about our weather records

Advertising

Kulmbach weather history for previous 24 hours

 ConditionsComfort  
Time TempWeatherWind HumidityBarometerVisibility
8:20 AM
Tue, Aug 4
70 °FSunny.3 mph60%30.04 "Hg10 mi
7:50 AM68 °FSunny.1 mph60%30.04 "Hg10 mi
7:20 AM68 °FSunny.1 mph64%30.04 "Hg10 mi
6:50 AM63 °FSunny.No wind68%30.04 "Hg10 mi
7:50 PM
Mon, Aug 3
77 °FSunny.2 mph42%30.07 "Hg10 mi
7:20 PM77 °FPassing clouds.6 mph39%30.07 "HgN/A
6:50 PM79 °FSunny.6 mph37%30.07 "Hg10 mi
6:20 PM77 °FPassing clouds.6 mph42%30.09 "HgN/A
5:50 PM77 °FPassing clouds.5 mph42%30.09 "HgN/A
5:20 PM82 °FPassing clouds.6 mph35%30.09 "HgN/A
4:50 PM82 °FPassing clouds.6 mph35%30.09 "HgN/A
4:20 PM81 °FPassing clouds.6 mph37%30.09 "HgN/A
3:50 PM82 °FPassing clouds.7 mph35%30.09 "HgN/A
3:20 PM79 °FPassing clouds.6 mph39%30.12 "HgN/A
2:50 PM82 °FSunny.7 mph35%30.12 "Hg10 mi
2:20 PM81 °FPassing clouds.7 mph37%30.12 "HgN/A
1:50 PM82 °FSunny.6 mph37%30.12 "Hg10 mi
1:20 PM79 °FPassing clouds.5 mph37%30.12 "HgN/A
12:50 PM77 °FPassing clouds.5 mph42%30.12 "HgN/A
12:20 PM77 °FPassing clouds.7 mph39%30.15 "HgN/A
11:50 AM77 °FPassing clouds.7 mph44%30.15 "HgN/A
11:20 AM75 °FSunny.6 mph47%30.15 "Hg10 mi
10:50 AM73 °FPassing clouds.7 mph50%30.15 "HgN/A
10:20 AM73 °FPassing clouds.8 mph50%30.15 "HgN/A
9:50 AM72 °FPassing clouds.7 mph53%30.15 "HgN/A
9:20 AM70 °FPassing clouds.7 mph57%30.15 "HgN/A
Weather by CustomWeather, © 2015

See weather overviewHow to use our weather pages